TABS, Texas Automated Buoy System, NOAA HAZMAT, Ocean Observatory, Real Time Oceanographic Data Supporting Oil Spill Prevention and Response

Texas General Land Office  Texas General
 Land Office
 Oil Spill Prevention
 & Response
Texas Automated Buoy System
Real Time Ocean Observations
Supporting Oil Spill Prevention and Response since 1995
Geochemical and Environmental Research Group

TABS Buoy J -- Texas Automated Buoy System

TABS Buoy J Conditions at 10/01/2014 23:00 UTC (10/01/2014 18:00 CDT)
26° 11.4840'N   97° 3.0420'W
AA3900 DCS - sensor depth 2m
Anemometer height: 4m
Water Depth: 68 feet (20 meters)
Speed: 11.58 cm/s (0.23 kts) Direction: 309 °T (NW) Water Temp: 28°C (83 °F)
System Voltage: 12.4 V Signal Strength: -1.8 dB Ping Count: 141
Wind: 5.4 m/s (10.5 kts)
          From 159°T (SSE)
Air Temp: 28 °C (83 °F)
Relative Humidity:  N/A
Pressure: 1008.1 mb (29.77 inHg)

  


IMPORTANT: Notice to Mariners


Today's System Data (download)

   Date   |  Time  | VBatt |  SigStr| Comp | Nping| Tx | Ty | ADCP | ADCP | VBatt |
          |  (UTC) | (Oper)|   (dB) | (°M) |      |    |    | Volt | Curr |(sleep)|
==========+========+=======+========+======+======+====+====+======+======+=======+
10/01/2014 00:00:00    12.1   -1.86   142.6    133    0    -4    3.0    3.0   -0.1
10/01/2014 00:30:00    12.1   -1.88   146.7    128    0    -4    3.0    3.0   -0.1
10/01/2014 01:00:00    12.0   -1.88   146.8    146    0    -4    3.0    3.0   -0.1
10/01/2014 01:30:00    12.0   -1.82   154.7    133    1    -3    3.0    2.0   -0.1
10/01/2014 02:00:00    12.0   -1.80   153.6    126    1    -3    3.0    2.0   -0.1
10/01/2014 02:30:00    12.0   -1.80   157.5    137    1    -3    3.0    2.0   -0.1
10/01/2014 03:00:00    11.9   -1.76   157.1    130    1    -3    3.0    2.0   -0.1
10/01/2014 03:30:00    12.0   -1.76   165.5    128    1    -3    3.0    2.0   -0.1
10/01/2014 04:00:00    12.0   -1.77   170.8    133    2    -3    3.0    2.0   -0.1
10/01/2014 04:30:00    12.0   -1.77   178.6    133    2    -2    3.0    2.0   -0.1
10/01/2014 05:00:00    12.0   -1.78   181.6    140    2    -2    3.0    2.0   -0.1
10/01/2014 05:30:00    11.9   -1.78   186.5    139    3    -2    4.0    2.0   -0.1
10/01/2014 06:00:00    11.9   -1.79   186.7    130    3    -2    4.0    2.0   -0.1
10/01/2014 06:30:00    11.9   -1.79   188.6    141    3    -2    4.0    2.0   -0.1
10/01/2014 07:00:00    11.9   -1.78   191.4    145    4    -2    4.0    2.0   -0.1
10/01/2014 07:30:00    11.9   -1.81   193.2    136    4    -2    4.0    2.0   -0.1
10/01/2014 08:00:00    11.9   -1.80   194.4    118    4    -1    4.0    2.0   -0.1
10/01/2014 08:30:00    11.9   -1.81   196.4    140    3    -1    4.0    2.0   -0.1
10/01/2014 09:00:00    11.9   -1.81   198.0    134    4    -1    4.0    2.0   -0.1
10/01/2014 09:30:00    11.8   -1.81   199.0    133    4    -1    4.0    2.0   -0.1
10/01/2014 10:00:00    11.9   -1.83   198.3    138    4    -1    4.0    2.0   -0.1
10/01/2014 10:30:00    11.8   -1.81   200.8    129    3    -1    4.0    2.0   -0.1
10/01/2014 11:00:00    11.9   -1.81   200.4    135    3    -1    4.0    2.0   -0.1
10/01/2014 11:30:00    11.8   -1.81   199.3    134    3    -1    4.0    2.0   -0.1
10/01/2014 12:00:00    11.8   -1.91   199.5    142    3    -1    3.0    1.0   -0.1
10/01/2014 12:30:00    11.8   -1.81   199.0    128    3    -1    3.0    1.0   -0.1
10/01/2014 13:00:00    12.1   -1.80   198.6    136    3    -1    4.0    1.0   -0.1
10/01/2014 13:30:00    12.2   -1.80   204.0    135    3     0    3.0    1.0   -0.1
10/01/2014 14:00:00    12.3   -1.78   211.3    134    3     0    3.0    1.0   -0.1
10/01/2014 14:30:00    12.3   -1.79   207.7    130    3     0    3.0    1.0   -0.1
10/01/2014 15:00:00    12.3   -1.77   195.1    134    3    -1    3.0    1.0   -0.1
10/01/2014 15:30:00    12.3   -1.76   184.9    131    3    -1    3.0    1.0   -0.1
10/01/2014 16:00:00    12.4   -1.78   185.1    131    3    -2    3.0    1.0   -0.1
10/01/2014 16:30:00    12.4   -1.78   187.6    135    3    -1    3.0    1.0   -0.1
10/01/2014 17:00:00    12.3   -1.76   188.3    134    3    -2    4.0    1.0   -0.1
10/01/2014 17:30:00    12.3   -1.79   195.3    129    3    -1    4.0    1.0   -0.1
10/01/2014 18:00:00    12.3   -1.75   198.2    134    3    -1    4.0    1.0   -0.1
10/01/2014 18:30:00    12.3   -1.76   190.7    133    3    -1    4.0    1.0   -0.1
10/01/2014 19:00:00    12.3   -1.76   182.9    133    3    -2    4.0    1.0   -0.1
10/01/2014 19:30:00    12.3   -1.77   180.9    134    3    -2    4.0    1.0   -0.1
10/01/2014 20:00:00    12.4   -1.78   184.2    125    3    -2    4.0    1.0   -0.1
10/01/2014 20:30:00    12.4   -1.81   180.6    127    3    -2    4.0    2.0   -0.1
10/01/2014 21:00:00    12.4   -1.80   178.4    127    3    -2    4.0    2.0   -0.1
10/01/2014 21:30:00    12.5   -1.78   180.9    137    3    -2    4.0    2.0   -0.1
10/01/2014 22:00:00    12.5   -1.80   181.3    140    3    -2    4.0    2.0   -0.1
10/01/2014 22:30:00    12.5   -1.79   181.8    132    3    -2    4.0    2.0   -0.1
10/01/2014 23:00:00    12.4   -1.80   179.2    141    3    -2    4.0    2.0   -0.1